User: anonymous   Login
Location: Vancouver
(49.2500°N, 123.1330°W)
Time: 14:51:24
(UTC-07:00)
Language:

S-56A Canister/Altair - Orbit

View from above orbital plane
View from above orbital plane
View from above satellite
View from above satellite

Ground track
Ground track

The orbit data is extracted from the following two-line orbital elements,

1 00082U 61004B   16116.15163427  .00000037  00000-0  71217-4 0  9997
2 00082  38.8690  43.7985 1168358 336.9322  18.2720 12.25755600621958
Epoch (UTC): 25 April 2016 03:38:21
Eccentricity: 0.1168358
inclination: 38.8690°
perigee height: 639 km
apogee height: 2496 km
right ascension of ascending node: 43.7985°
argument of perigee: 336.9322°
revolutions per day: 12.25755600
mean anomaly at epoch: 18.2720°
orbit number at epoch: 62195

The dashed part of the orbit path shows where the satellite is in the earth's shadow,  

DLR